Regional Weather Roundup
Issued by NWS

Home | Current Version | Previous Version | Text Only | Print | Product List | Glossary Off
Versions: 1 2 3 4 5 6 7 8 9 10 11 12 13 14 15 16 17 18 19 20 21 22 23 24 25 26 27 28 29 30 31 32 33 34 35 36 37 38 39 40 41 42 43 44 45 46 47 48 49 50

174
ASUS43 KOAX 270602
RWRNE

WEATHER ROUNDUP FOR NEBRASKA
NATIONAL WEATHER SERVICE OMAHA NE
1200 AM CST MON FEB 27 2017

NOTES: SATELLITE DATA IS BEING USED TO AUGMENT CLOUD COVER ABOVE
       12000 FEET.
       "FAIR" INDICATES FEW OR NO CLOUDS BELOW 12,000 FEET WITH NO
       SIGNIFICANT WEATHER AND/OR OBSTRUCTIONS TO VISIBILITY.

  * THESE STATIONS DO NOT REPORT WEATHER SUCH AS RAIN...SNOW OR FOG.

NEZ001>004-019>022-054>056-270700-
NEBRASKA PANHANDLE

CITY           SKY/WX    TMP DP  RH WIND       PRES   REMARKS
SCOTTSBLUFF    CLOUDY    13   5  70 E6        29.81S WCI   4
6HR MIN TEMP:  10; 6HR MAX TEMP:  31;

ALLIANCE       CLOUDY     3  -2  79 S3        29.80S
6HR MIN TEMP:  -1; 6HR MAX TEMP:  21;

CHADRON        CLOUDY     6   1  80 S3        29.80F
6HR MIN TEMP:   3; 6HR MAX TEMP:  26;

KIMBALL        CLOUDY    19  12  76 S7        29.79S WCI   9
SIDNEY         CLOUDY    16   9  74 S9        29.81F WCI   4
6HR MIN TEMP:  13; 6HR MAX TEMP:  33;

$$

NEZ057>060-069>072-079>082-270700-
SOUTHWEST NEBRASKA

CITY           SKY/WX    TMP DP  RH WIND       PRES   REMARKS
NORTH PLATTE   CLEAR     18  11  74 CALM      29.90F
6HR MIN TEMP:  17; 6HR MAX TEMP:  37;

IMPERIAL       CLEAR     20  11  68 SE3       29.87F
6HR MIN TEMP:  20; 6HR MAX TEMP:  37;

LEXINGTON      CLEAR     20  16  83 CALM      29.92F
MCCOOK         CLEAR     22  10  60 CALM      29.90F
6HR MIN TEMP:  20; 6HR MAX TEMP:  39;

OGALLALA       CLEAR     16  11  83 CALM      29.86F
$$

NEZ005>010-023>029-035>040-094-270700-
NORTH CENTRAL NEBRASKA

CITY           SKY/WX    TMP DP  RH WIND       PRES   REMARKS
VALENTINE      CLOUDY     8   4  83 SW7       29.85F WCI  -3
6HR MIN TEMP:   8; 6HR MAX TEMP:  23;

AINSWORTH      CLEAR     15  11  81 S8        29.87F WCI   5
BROKEN BOW     CLEAR     17  12  80 CALM      29.91S
6HR MIN TEMP:  13; 6HR MAX TEMP:  36;

O`NEILL        CLEAR     18  13  82 SW6       29.90F WCI  10
ORD            CLEAR     20  13  74 CALM      29.92S
6HR MIN TEMP:  18; 6HR MAX TEMP:  37;

THEDFORD       CLOUDY    16  10  78 W3        29.87F
$$

NEZ041-046>049-061>064-073>077-083>087-270700-
SOUTH CENTRAL NEBRASKA

CITY           SKY/WX    TMP DP  RH WIND       PRES   REMARKS
GRAND ISLAND   CLEAR     26  17  68 S6        29.95F WCI  19
6HR MIN TEMP:  25; 6HR MAX TEMP:  40;

AURORA         CLEAR     27  17  65 CALM      29.96S
HASTINGS       CLEAR     25  16  68 CALM      29.96F
6HR MIN TEMP:  23; 6HR MAX TEMP:  40;

HEBRON         CLEAR     23  17  78 CALM      29.99S
HOLDREGE       CLEAR     23  14  67 CALM      29.93F
KEARNEY *      CLEAR     28  14  54 CALM      29.95S
YORK           CLEAR     28  25  86 S7        29.96F WCI  21
$$

NEZ011>018-030>034-042>045-270700-
NORTHEAST NEBRASKA

CITY           SKY/WX    TMP DP  RH WIND       PRES   REMARKS
NORFOLK        CLEAR     25  20  81 S10       29.94S WCI  15
6HR MIN TEMP:  23; 6HR MAX TEMP:  35;

ALBION         CLEAR     25  18  75 CALM      29.94S
BLAIR          CLEAR     29  23  79 S5        29.98F WCI  24
FREMONT        CLEAR     27  23  83 CALM      29.99S
TEKAMAH        CLEAR     22  20  92 S6        29.99F WCI  14
6HR MIN TEMP:  22; 6HR MAX TEMP:  35;

WAYNE          CLEAR     24  19  79 SW6       29.96R WCI  17
$$

NEZ050>053-065>068-078-088>093-270700-
SOUTHEAST NEBRASKA

CITY           SKY/WX    TMP DP  RH WIND       PRES   REMARKS
LINCOLN        CLEAR     22  20  92 N3        30.01S
6HR MIN TEMP:  22; 6HR MAX TEMP:  41;

OMAHA EPPLEY   CLEAR     30  21  69 S6        30.01S WCI  24
6HR MIN TEMP:  26; 6HR MAX TEMP:  40;

BEATRICE       CLEAR     26  18  73 CALM      30.00S
FALLS CITY     CLEAR     32  21  64 CALM      30.00F
6HR MIN TEMP:  29; 6HR MAX TEMP:  46;

NEBRASKA CITY  CLEAR     31  17  57 S5        30.00F WCI  26
PLATTSMOUTH    PTCLDY    31  19  62 SE6       30.00F WCI  25
$$

NEZ044-045-051>053-067-270700-
OMAHA AREA

CITY           SKY/WX    TMP DP  RH WIND       PRES   REMARKS
OMAHA EPPLEY   CLEAR     30  21  69 S6        30.01S WCI  24
6HR MIN TEMP:  26; 6HR MAX TEMP:  40;

BLAIR          CLEAR     29  23  79 S5        29.98F WCI  24
FREMONT        CLEAR     27  23  83 CALM      29.99S
MILLARD        CLEAR     28  25  89 CALM      30.01S
OFFUTT AFB     CLEAR     21  18  87 CALM      30.00F
PLATTSMOUTH    PTCLDY    31  19  62 SE6       30.00F WCI  25
WAHOO          FAIR      24  21  90 S6        29.99F WCI  17
$$




USA.gov is the U.S. government's official web portal to all federal, state and local government web resources and services.